Terminal Aerodrome Forecast
Issued by NWS Green Bay, WI

Home | Current Version | Previous Version | Text Only | Print | Product List | Glossary Off
Versions: 1 2 3 4 5 6 7 8 9 10 11 12 13 14 15 16 17 18 19 20 21 22 23 24 25 26 27 28 29 30 31 32 33 34 35 36

000
FTUS43 KGRB 020500
TAFGRB
TAF
KGRB 020534Z 0206/0306 26008KT P6SM SCT040
     FM021500 30006KT P6SM SKC
     FM022100 23005KT P6SM BKN200
     FM030300 18004KT P6SM BKN120=

USA.gov is the U.S. government's official web portal to all federal, state and local government web resources and services.